F4MNZ-13 Weather Reports


Display with metric or nautical units.
time (UTC)temp
F
wind
direction
speed
MPH
gust
MPH
rain 1hr
in
rain 24hr
in
rain mn
in
humidity
%
barometer
mb
20260506124003 58 45 10.0 12.0 0.00 0.10 0.00 60 1016.4
20260506123501 59 37 6.0 14.0 0.00 0.10 0.00 63 1016.4
20260506123001 59 69 9.0 14.0 0.00 0.10 0.00 68 1016.5
20260506122000 58 232 2.0 7.0 0.00 0.10 0.00 61 1016.4
20260506121502 59 205 3.0 11.0 0.00 0.10 0.00 62 1016.4
20260506120959 59 219 2.0 10.0 0.00 0.10 0.00 62 1016.3
20260506120500 59 256 3.0 7.0 0.00 0.10 0.00 61 1016.4
20260506120000 59 59 2.0 14.0 0.00 0.10 0.00 62 1016.3
20260506115000 59 312 5.0 10.0 0.00 0.10 0.00 60 1016.5
20260506114501 58 218 4.0 10.0 0.00 0.10 0.00 60 1016.4
20260506114000 58 274 6.0 10.0 0.00 0.10 0.00 65 1016.5
20260506113502 57 297 3.0 7.0 0.00 0.10 0.00 68 1016.7
20260506112501 56 217 6.0 9.0 0.00 0.10 0.00 65 1016.8
20260506111959 57 219 7.0 9.0 0.00 0.10 0.00 63 1016.8
20260506111500 57 189 2.0 11.0 0.00 0.10 0.00 65 1016.7
20260506111003 57 204 3.0 11.0 0.00 0.10 0.00 65 1016.9
20260506105959 57 84 2.0 9.0 0.00 0.10 0.00 64 1016.9
20260506104959 57 228 6.0 9.0 0.00 0.10 0.00 61 1016.9
20260506104459 56 92 1.0 9.0 0.00 0.10 0.00 62 1017.1
20260506103959 56 239 6.0 9.0 0.00 0.10 0.00 63 1017.0
20260506102959 56 329 3.0 11.0 0.00 0.10 0.00 64 1017.2
20260506102459 55 303 1.0 11.0 0.00 0.10 0.00 64 1017.2
20260506102000 55 53 10.0 11.0 0.00 0.10 0.00 68 1017.1
20260506101459 55 40 7.0 11.0 0.00 0.10 0.00 70 1017.3
20260506100958 54 28 3.0 11.0 0.00 0.10 0.00 64 1017.2
20260506100459 54 333 2.0 11.0 0.00 0.10 0.00 63 1017.3
20260506100001 55 338 6.0 9.0 0.00 0.10 0.00 64 1017.3
20260506095458 55 63 4.0 8.0 0.00 0.10 0.00 72 1017.2
20260506095000 54 68 2.0 7.0 0.00 0.10 0.00 65 1017.2
20260506094501 54 242 3.0 6.0 0.00 0.10 0.00 62 1017.2
20260506093959 54 242 4.0 7.0 0.00 0.10 0.00 62 1017.1
20260506093500 54 263 3.0 8.0 0.00 0.10 0.00 60 1017.1
20260506092501 56 56 4.0 4.0 0.00 0.10 0.00 63 1017.1
20260506092002 55 127 2.0 8.0 0.00 0.10 0.00 70 1017.1
20260506091500 55 313 2.0 8.0 0.00 0.10 0.00 66 1017.1
20260506090000 54 65 2.0 6.0 0.00 0.10 0.00 67 1016.9
20260506085500 54 61 2.0 5.0 0.00 0.10 0.00 72 1016.9
20260506085001 53 57 4.0 5.0 0.00 0.10 0.00 68 1016.9
20260506083459 53 55 1.0 3.0 0.00 0.10 0.00 75 1016.9
20260506083001 52 40 1.0 3.0 0.00 0.10 0.00 73 1017.0
20260506082501 52 71 2.0 2.0 0.00 0.10 0.00 77 1017.1
20260506081958 51 55 0.0 2.0 0.00 0.10 0.00 74 1017.1
20260506081501 51 91 1.0 3.0 0.00 0.10 0.00 76 1017.1
20260506081002 51 120 2.0 4.0 0.00 0.10 0.00 73 1017.1
20260506080459 51 68 2.0 4.0 0.00 0.10 0.00 76 1017.2
20260506073500 46 177 1.0 2.0 0.00 0.10 0.00 90 1017.3
20260506071959 46 44 1.0 2.0 0.00 0.10 0.00 90 1017.3
20260506070459 47 44 0.0 2.0 0.00 0.10 0.00 89 1017.2
20260506062458 46 45 1.0 3.0 0.00 0.10 0.00 94 1017.2
20260506062004 46 45 2.0 2.0 0.00 0.10 0.00 94 1017.2
20260506061001 45 232 0.0 2.0 0.00 0.10 0.00 95 1017.1
20260506060502 45 232 0.0 2.0 0.00 0.10 0.00 95 1017.1
20260506050958 0 0.0 0.0 0.00 0.10 0.00 1016.8
20260506050458 0 0.0 0.0 0.00 0.10 0.00 1016.7
20260506044958 0 0.0 0.0 0.00 0.10 0.00 1016.7
20260506044459 0 0.0 0.0 0.00 0.10 0.00 1016.6
20260506043958 0 0.0 0.0 0.00 0.10 0.00 1016.6
20260506043458 0 0.0 0.0 0.00 0.10 0.00 1016.6
20260506042958 0 0.0 0.0 0.00 0.10 0.00 1016.5
20260506042458 0 0.0 0.0 0.00 0.10 0.00 1016.5
20260506041958 0 0.0 0.0 0.00 0.10 0.00 1016.5
20260506041458 0 0.0 0.0 0.00 0.10 0.00 1016.5
20260506040958 0 0.0 0.0 0.00 0.10 0.00 1016.4
20260506040458 0 0.0 0.0 0.00 0.10 0.00 1016.4
20260506035959 0 0.0 0.0 0.00 0.10 0.00 1016.5
20260506035458 0 0.0 0.0 0.00 0.10 0.00 1016.4
20260506033957 0 0.0 0.0 0.00 0.10 0.00 1016.4
20260506032958 0 0.0 0.0 0.00 0.10 0.00 1016.6
20260506031958 0 0.0 0.0 0.00 0.10 0.00 1016.6
20260506031458 0 0.0 0.0 0.00 0.10 0.00 1016.6
20260506030958 0 0.0 0.0 0.00 0.10 0.00 1016.5
20260506030459 0 0.0 0.0 0.00 0.10 0.00 1016.6
20260506025959 0 0.0 0.0 0.00 0.10 0.00 1016.6
20260506025458 0 0.0 0.0 0.00 0.10 0.00 1016.4
20260506024958 0 0.0 0.0 0.00 0.10 0.00 1016.5
20260506024458 0 0.0 0.0 0.00 0.10 0.00 1016.5
20260506023958 0 0.0 0.0 0.00 0.10 0.00 1016.6
20260506023458 0 0.0 0.0 0.00 0.10 0.00 1016.6
20260506022958 0 0.0 0.0 0.00 0.10 0.00 1016.6
20260506022458 0 0.0 0.0 0.00 0.10 0.00 1016.6
20260506021958 0 0.0 0.0 0.00 0.10 0.00 1016.5
20260506021457 0 0.0 0.0 0.00 0.10 0.00 1016.4
20260506020958 0 0.0 0.0 0.00 0.10 0.00 1016.5
20260506020457 0 0.0 0.0 0.00 0.10 0.00 1016.4
20260506015958 0 0.0 0.0 0.00 0.10 0.00 1016.4
20260506014456 0 0.0 0.0 0.00 0.10 0.00 1016.6
20260506013957 0 0.0 0.0 0.00 0.10 0.00 1016.6
20260506013457 0 0.0 0.0 0.00 0.10 0.00 1016.6
20260506012958 0 0.0 0.0 0.00 0.10 0.00 1016.6
20260506012458 0 0.0 0.0 0.00 0.10 0.00 1016.6
20260506011459 0 0.0 0.0 0.00 0.10 0.00 1016.7
20260506010457 0 0.0 0.0 0.00 0.10 0.00 1016.9
20260506010000 0 0.0 0.0 0.00 0.10 0.00 1016.9
20260506005459 0 0.0 0.0 0.00 0.10 0.00 1016.9
20260506004958 0 0.0 0.0 0.00 0.10 0.00 1016.9
20260506004458 0 0.0 0.0 0.00 0.10 0.00 1016.9
20260506004000 0 0.0 0.0 0.00 0.10 0.00 1016.9
20260506003457 0 0.0 0.0 0.00 0.10 0.00 1016.8
20260506002959 0 0.0 0.0 0.00 0.10 0.00 1016.9
20260506002459 0 0.0 0.0 0.00 0.10 0.00 1016.9
20260506001958 0 0.0 0.0 0.00 0.10 0.00 1017.0
20260506001459 0 0.0 0.0 0.00 0.10 0.00 1017.0
20260506000958 0 0.0 0.0 0.00 0.10 0.00 1017.1
20260506000458 0 0.0 0.0 0.00 0.10 0.00 1017.3
20260505235458 0 0.0 0.0 0.00 0.10 0.00 1017.3
20260505234957 0 0.0 0.0 0.00 0.10 0.00 1017.4
20260505234458 0 0.0 0.0 0.00 0.10 0.00 1017.4
20260505233958 0 0.0 0.0 0.00 0.10 0.00 1017.5
20260505233457 0 0.0 0.0 0.00 0.10 0.00 1017.6
20260505232957 0 0.0 0.0 0.00 0.10 0.00 1017.6
20260505232458 0 0.0 0.0 0.00 0.10 0.00 1017.7
20260505231957 0 0.0 0.0 0.00 0.10 0.00 1017.6
20260505231457 0 0.0 0.0 0.00 0.10 0.00 1017.6
20260505230957 0 0.0 0.0 0.00 0.10 0.00 1017.5
20260505230457 0 0.0 0.0 0.00 0.10 0.00 1017.7
20260505230000 0 0.0 0.0 0.00 0.10 0.00 1017.7
20260505225500 0 0.0 0.0 0.00 0.11 0.00 1017.7
20260505225000 0 0.0 0.0 0.00 0.11 0.00 1017.7
20260505224500 0 0.0 0.0 0.00 0.11 0.00 1017.7
20260505223501 0 0.0 0.0 0.00 0.11 0.00 1017.8
20260505222500 0 0.0 0.0 0.00 0.11 0.00 1017.8
20260505222002 0 0.0 0.0 0.00 0.11 0.00 1017.8
20260505221500 0 0.0 0.0 0.00 0.11 0.00 1017.9
20260505221001 0 0.0 0.0 0.00 0.11 0.00 1017.9
20260505220501 0 0.0 0.0 0.00 0.11 0.00 1017.9
20260505220004 0 0.0 0.0 0.00 0.11 0.00 1018.0
20260505215500 0 0.0 0.0 0.00 0.11 0.11 1018.1
20260505215000 0 0.0 0.0 0.00 0.11 0.11 1018.1
20260505214500 0 0.0 0.0 0.00 0.11 0.11 1018.1
20260505213501 0 0.0 0.0 0.00 0.11 0.11 1018.3
20260505213000 0 0.0 0.0 0.00 0.11 0.11 1018.2
20260505212500 0 0.0 0.0 0.00 0.11 0.11 1018.3
20260505211501 0 0.0 0.0 0.00 0.11 0.11 1018.3
20260505211001 0 0.0 0.0 0.00 0.11 0.11 1018.3
20260505210001 0 0.0 0.0 0.00 0.11 0.11 1018.2
20260505205000 0 0.0 0.0 0.00 0.11 0.11 1018.3
20260505204500 0 0.0 0.0 0.00 0.11 0.11 1018.2
20260505202500 0 0.0 0.0 0.00 0.11 0.11 1018.0
20260505202000 0 0.0 0.0 0.00 0.11 0.11 1018.1
20260505201500 0 0.0 0.0 0.00 0.11 0.11 1018.0
20260505201000 0 0.0 0.0 0.00 0.11 0.11 1018.2
20260505200002 0 0.0 0.0 0.00 0.11 0.11 1017.9
20260505195500 0 0.0 0.0 0.00 0.13 0.11 1017.9
20260505194959 0 0.0 0.0 0.00 0.13 0.11 1017.8
20260505194501 0 0.0 0.0 0.00 0.13 0.11 1017.8
20260505192506 0 0.0 0.0 0.00 0.13 0.11 1017.7
20260505191501 0 0.0 0.0 0.00 0.13 0.11 1017.8
20260505191003 0 0.0 0.0 0.00 0.13 0.11 1017.7
20260505190502 0 0.0 0.0 0.00 0.13 0.11 1017.6
20260505190000 0 0.0 0.0 0.00 0.15 0.11 1017.5
20260505185502 0 0.0 0.0 0.00 0.15 0.11 1017.5
20260505185000 0 0.0 0.0 0.00 0.15 0.11 1017.5
20260505183507 0 0.0 0.0 0.00 0.15 0.11 1017.5
20260505183000 0 0.0 0.0 0.00 0.15 0.11 1017.5
20260505182500 47 154 0.0 2.0 0.00 0.15 0.11 92 1017.4
20260505182001 47 154 0.0 2.0 0.00 0.15 0.11 92 1017.3
20260505181503 47 154 0.0 2.0 0.00 0.15 0.11 92 1017.5
20260505181001 47 154 1.0 1.0 0.00 0.15 0.11 92 1017.6
20260505180001 47 154 0.0 2.0 0.00 0.28 0.11 92 1017.5
20260505174959 47 138 0.0 2.0 0.00 0.28 0.11 91 1017.6
20260505174459 47 154 1.0 2.0 0.00 0.28 0.11 91 1017.4
20260505173959 47 220 0.0 2.0 0.00 0.28 0.11 90 1017.4
20260505173459 47 220 0.0 2.0 0.00 0.28 0.11 89 1017.4
20260505172959 47 204 0.0 2.0 0.00 0.28 0.11 89 1017.4
20260505172458 47 194 0.0 2.0 0.00 0.28 0.11 88 1017.3
20260505171959 47 213 0.0 2.0 0.00 0.28 0.11 88 1017.4
20260505171500 47 205 0.0 3.0 0.00 0.28 0.11 88 1017.4
20260505171000 47 196 0.0 3.0 0.00 0.28 0.11 87 1017.5
20260505170501 48 136 2.0 2.0 0.00 0.28 0.11 89 1017.4
20260505165459 47 214 0.0 2.0 0.01 0.35 0.11 88 1017.5
20260505164459 47 159 1.0 4.0 0.02 0.35 0.11 88 1017.6
20260505164001 47 144 1.0 4.0 0.02 0.35 0.11 86 1017.6
20260505163459 47 138 4.0 4.0 0.02 0.35 0.11 86 1017.5
20260505162459 46 207 4.0 7.0 0.02 0.35 0.11 87 1017.6
20260505161959 46 200 5.0 7.0 0.02 0.35 0.11 88 1017.6
20260505161459 46 236 3.0 7.0 0.02 0.35 0.11 86 1017.6
20260505160959 46 213 3.0 8.0 0.02 0.35 0.11 87 1017.7
20260505152959 48 265 4.0 7.0 0.02 0.32 0.09 86 1017.4
20260505152503 48 258 1.0 7.0 0.03 0.32 0.09 86 1017.3
20260505152001 48 253 3.0 7.0 0.04 0.32 0.09 87 1017.3
20260505151459 48 266 1.0 7.0 0.08 0.32 0.09 87 1017.3
20260505151002 48 173 5.0 7.0 0.08 0.32 0.09 86 1017.3
20260505150459 48 229 0.0 7.0 0.08 0.32 0.09 86 1017.1
20260505140501 53 93 1.0 3.0 0.00 0.24 0.01 77 1016.1
20260505125002 54 268 1.0 4.0 0.00 0.25 0.01 75 1016.5
20260505124501 54 268 1.0 4.0 0.00 0.25 0.01 75 1016.3